This demonstration page uses our WeatherBlox Daily Observations layout. Learn more.

40.92945, -100.16068

Hourly Observations for May 5, 2018

Temp ( °F °C ) Dew Point ( °F °C ) Humidity (%) Winds ( mph kmh ) Pressure ( in mb ) Visibility ( mi km ) Precip ( " mm )
12:15 am 00:15 Clear 53 11.4 38 3.1 57 57 Calm 30.09 1019 10 16.0934 0 0
12:35 am 00:35 Clear 53 11.5 38 3.1 57 57 Calm 30.09 1019 10 16.0934 0 0
12:55 am 00:55 Clear 48 8.7 36 2.4 65 65 Calm 30.12 1020 10 16.0934 0 0
1:15 am 01:15 Clear 48 8.9 37 2.7 65 65 Calm 30.12 1020 10 16.0934 0 0
1:35 am 01:35 Clear 46 7.9 37 2.5 69 69 NNW 3 6 30.12 1020 10 16.0934 0 0
1:55 am 01:55 Clear 46 7.6 36 2.1 68 68 Calm 30.15 1021 10 16.0934 0 0
2:15 am 02:15 Clear 46 8 37 2.6 69 69 NW 3 6 30.12 1020 10 16.0934 0 0
2:35 am 02:35 Clear 44 6.9 35 1.6 69 69 NNW 3 6 30.15 1021 10 16.0934 0 0
2:55 am 02:55 Clear 46 7.5 36 2.3 70 70 NNW 5 7 30.15 1021 10 16.0934 0 0
3:15 am 03:15 Clear 44 6.9 36 2.1 72 72 N 5 7 30.15 1021 10 16.0934 0 0
3:35 am 03:35 Clear 46 7.5 36 2.1 69 69 Calm 30.15 1021 10 16.0934 0 0
3:55 am 03:55 Clear 43 6.3 36 2 74 74 NNW 3 6 30.15 1021 10 16.0934 0 0
4:15 am 04:15 Clear 45 7.1 35 1.9 70 70 Calm 30.15 1021 10 16.0934 0 0
4:35 am 04:35 Clear 45 7 35 1.9 70 70 Calm 30.15 1021 10 16.0934 0 0
4:55 am 04:55 Clear 45 7.3 36 2 69 69 Calm 30.15 1021 10 16.0934 0 0
5:15 am 05:15 Clear 44 6.8 36 2.2 73 73 Calm 30.15 1021 10 16.0934 0 0
5:35 am 05:35 Clear 43 5.9 36 2.3 78 78 NW 3 6 30.15 1021 10 16.0934 0 0
5:55 am 05:55 Clear 46 7.5 36 2.4 70 70 NW 6 9 30.15 1021 10 16.0934 0 0
6:15 am 06:15 Clear 43 6 36 2.2 77 77 Calm 30.15 1021 10 16.0934 0 0
6:35 am 06:35 Sunny 42 5.5 36 2 78 78 W 3 6 30.15 1021 10 16.0934 0 0
6:55 am 06:55 Sunny 42 5.5 35 1.5 76 76 W 3 6 30.15 1021 10 16.0934 0 0
7:15 am 07:15 Sunny 44 6.4 36 2 74 74 W 6 9 30.15 1021 10 16.0934 0 0
7:35 am 07:35 Sunny 46 7.7 40 4.3 79 79 W 6 9 30.12 1020 10 16.0934 0 0
7:55 am 07:55 Sunny 51 10.6 42 5.6 71 71 W 5 7 30.12 1020 10 16.0934 0 0
8:15 am 08:15 Sunny 55 12.6 42 5.5 62 62 W 3 6 30.09 1019 10 16.0934 0 0
8:35 am 08:35 Sunny 57 13.9 43 6.2 60 60 WNW 3 6 30.09 1019 10 16.0934 0 0
8:55 am 08:55 Sunny 59 15.2 44 6.6 57 57 NW 3 6 30.06 1018 10 16.0934 0 0
9:15 am 09:15 Sunny 62 16.7 44 6.5 51 51 W 5 7 30.06 1018 10 16.0934 0 0
9:35 am 09:35 Partly Cloudy 65 18.6 43 6.3 45 45 W 7 11 30.03 1017 10 16.0934 0 0
9:55 am 09:55 Partly Cloudy 69 20.3 42 5.4 38 38 W 7 11 30.03 1017 10 16.0934 0 0
10:15 am 10:15 Sunny 71 21.5 43 6 37 37 W 9 15 30 1016 10 16.0934 0 0
10:35 am 10:35 Sunny 72 22.1 43 5.9 35 35 WNW 6 9 30 1016 10 16.0934 0 0
10:55 am 10:55 Sunny 74 23.2 42 5.7 32 32 WNW 6 9 30 1016 10 16.0934 0 0
11:15 am 11:15 Sunny 74 23.6 41 4.9 30 30 Calm 30 1016 10 16.0934 0 0
11:35 am 11:35 Sunny 76 24.6 42 5.4 29 29 W 6 9 29.97 1015 10 16.0934 0 0
11:55 am 11:55 Sunny 79 25.9 41 4.9 26 26 Calm 29.94 1014 10 16.0934 0 0
12:15 pm 12:15 Sunny 80 26.8 36 2.4 21 21 SW 7 11 29.94 1014 10 16.0934 0 0
12:35 pm 12:35 Sunny 81 27 36 2.1 20 20 Calm 29.94 1014 10 16.0934 0 0
12:55 pm 12:55 Sunny 81 27.2 37 2.7 21 21 WNW 5 7 29.91 1013 10 16.0934 0 0
1:15 pm 13:15 Sunny 82 27.7 35 1.9 19 19 SSW 5 7 29.88 1012 10 16.0934 0 0
1:35 pm 13:35 Sunny 83 28.3 38 3.4 20 20 SSW 9 15 29.88 1012 10 16.0934 0 0
1:55 pm 13:55 Sunny 83 28.1 37 2.9 20 20 SSW 15 24 29.88 1012 10 16.0934 0 0
2:15 pm 14:15 Sunny 83 28.2 37 2.5 19 19 SSW 10 17 29.88 1012 10 16.0934 0 0
2:35 pm 14:35 Sunny 83 28.6 37 2.8 19 19 WSW 10 17 29.88 1012 10 16.0934 0 0
2:55 pm 14:55 Partly Cloudy 85 29.2 35 1.9 17 17 WSW 9 15 29.88 1012 10 16.0934 0 0
3:15 pm 15:15 Partly Cloudy 84 28.8 36 2.3 18 18 NW 6 9 29.88 1012 10 16.0934 0 0
3:35 pm 15:35 Partly Cloudy 83 28.3 35 1.8 18 18 W 8 13 29.88 1012 10 16.0934 0 0
3:55 pm 15:55 Mostly Cloudy 81 27.3 37 2.6 20 20 WNW 10 17 29.88 1012 10 16.0934 0 0
4:15 pm 16:15 Mostly Cloudy 81 27 34 1 18 18 NNW 9 15 29.91 1013 10 16.0934 0 0
4:35 pm 16:35 Mostly Cloudy with Light Rain 76 24.7 43 6 30 30 E 9 15 29.91 1013 7 11.26538 0 0
4:55 pm 16:55 Mostly Cloudy 80 26.4 46 7.7 31 31 Calm 29.91 1013 10 16.0934 0 0
5:15 pm 17:15 Partly Cloudy 81 27.1 40 4.3 23 23 Calm 29.91 1013 10 16.0934 0 0
5:35 pm 17:35 Sunny 80 26.4 41 5 25 25 N 12 19 29.88 1012 10 16.0934 0 0
5:55 pm 17:55 Partly Cloudy 82 27.9 40 4.3 22 22 N 3 6 29.85 1011 10 16.0934 0 0
6:15 pm 18:15 Sunny 82 27.8 39 3.9 22 22 NW 10 17 29.88 1012 10 16.0934 0 0
6:35 pm 18:35 Partly Cloudy 78 25.5 39 3.8 25 25 NNW 8 13 29.91 1013 10 16.0934 0 0
6:55 pm 18:55 Sunny 82 27.6 37 2.7 20 20 N 7 11 29.88 1012 10 16.0934 0 0
7:15 pm 19:15 Sunny 80 26.9 37 2.5 21 21 N 6 9 29.88 1012 10 16.0934 0 0
7:35 pm 19:35 Sunny 79 26.1 37 2.7 22 22 N 7 11 29.91 1013 10 16.0934 0 0
7:55 pm 19:55 Sunny 77 25 38 3.1 24 24 N 6 9 29.91 1013 10 16.0934 0 0
8:15 pm 20:15 Sunny 75 24.1 36 2.3 24 24 N 8 13 29.91 1013 10 16.0934 0 0
8:35 pm 20:35 Sunny 72 22.1 36 2.4 27 27 N 6 9 29.94 1014 10 16.0934 0 0
8:55 pm 20:55 Clear 69 20.5 36 2.4 30 30 N 7 11 29.94 1014 10 16.0934 0 0
9:15 pm 21:15 Clear 67 19.3 38 3.6 36 36 N 7 11 29.97 1015 10 16.0934 0 0
9:35 pm 21:35 Clear 62 16.5 41 4.9 46 46 NE 9 15 30 1016 10 16.0934 0 0
9:55 pm 21:55 Clear 61 16 43 6 52 52 ENE 9 15 30 1016 10 16.0934 0 0
10:15 pm 22:15 Clear 61 16.1 43 6 51 51 ENE 8 13 30 1016 10 16.0934 0 0
10:35 pm 22:35 Clear 61 16.3 43 6.1 51 51 ENE 6 9 30 1016 10 16.0934 0 0
10:55 pm 22:55 Clear 59 15.2 43 5.9 54 54 E 3 6 30.03 1017 10 16.0934 0 0
11:15 pm 23:15 Clear 60 15.6 42 5.6 52 52 Calm 30.03 1017 10 16.0934 0 0
11:35 pm 23:35 Clear 59 14.8 44 6.5 58 58 Calm 30.03 1017 10 16.0934 0 0
11:55 pm 23:55 Clear 55 12.8 43 5.9 63 63 NNW 6 9 30.06 1018 10 16.0934 0 0

Powered by AerisWeather